| time (UTC) | temp C | wind direction | speed KPH | gust KPH | rain 1hr cm | rain 24hr cm | rain mn cm | humidity % | barometer mb |
| 20260506114132 | 17 | 316 | 3.2 | 6.4 | 0.00 | 0.00 | 0.00 | 88 | 1009.2 |
| 20260506113232 | 17 | 333 | 0.0 | 4.8 | 0.00 | 0.00 | 0.00 | 88 | 1008.7 |
| 20260506113023 | 17 | 333 | 0.0 | 3.2 | 0.00 | 0.00 | 0.00 | 88 | 1008.7 |
| 20260506112332 | 17 | 317 | 1.6 | 4.8 | 0.00 | 0.00 | 0.00 | 88 | 1008.7 |
| 20260506111604 | 17 | 306 | 0.0 | 6.4 | 0.00 | 0.00 | 0.00 | 88 | 1008.7 |
| 20260506111432 | 17 | 278 | 1.6 | 6.4 | 0.00 | 0.00 | 0.00 | 88 | 1008.6 |
| 20260506110006 | 17 | 166 | 0.0 | 1.6 | 0.00 | 0.00 | 0.00 | 88 | 1008.1 |
| 20260506105632 | 17 | 166 | 0.0 | 1.6 | 0.00 | 0.00 | 0.00 | 89 | 1008.2 |
| 20260506104732 | 18 | 166 | 0.0 | 1.6 | 0.00 | 0.00 | 0.00 | 89 | 1008.1 |
| 20260506104503 | 17 | 166 | 0.0 | 3.2 | 0.00 | 0.00 | 0.00 | 88 | 1008.2 |
| 20260506103832 | 18 | 176 | 1.6 | 3.2 | 0.00 | 0.00 | 0.00 | 89 | 1008.0 |
| 20260506103104 | 17 | 316 | 0.0 | 3.2 | 0.00 | 0.00 | 0.00 | 88 | 1007.9 |
| 20260506102932 | 18 | 316 | 0.0 | 1.6 | 0.00 | 0.00 | 0.00 | 88 | 1007.8 |
| 20260506102034 | 18 | 316 | 0.0 | 3.2 | 0.00 | 0.00 | 0.00 | 87 | 1007.6 |
| 20260506101606 | 17 | 316 | 0.0 | 3.2 | 0.00 | 0.00 | 0.00 | 87 | 1007.6 |
| 20260506101132 | 18 | 316 | 0.0 | 1.6 | 0.00 | 0.00 | 0.00 | 87 | 1007.6 |
| 20260506100232 | 18 | 274 | 0.0 | 1.6 | 0.00 | 0.00 | 0.00 | 87 | 1007.5 |
| 20260506100104 | 18 | 316 | 0.0 | 3.2 | 0.00 | 0.00 | 0.00 | 87 | 1007.5 |
| 20260506095332 | 18 | 209 | 0.0 | 4.8 | 0.00 | 0.00 | 0.00 | 87 | 1007.6 |
| 20260506094506 | 18 | 316 | 0.0 | 1.6 | 0.00 | 0.00 | 0.00 | 86 | 1007.4 |
| 20260506094432 | 18 | 316 | 0.0 | 1.6 | 0.00 | 0.00 | 0.00 | 86 | 1007.3 |
| 20260506093003 | 18 | 316 | 0.0 | 3.2 | 0.00 | 0.00 | 0.00 | 86 | 1007.5 |
| 20260506092632 | 18 | 316 | 0.0 | 3.2 | 0.00 | 0.00 | 0.00 | 86 | 1007.4 |
| 20260506091732 | 18 | 0 | 0.0 | 0.0 | 0.00 | 0.00 | 0.00 | 86 | 1007.2 |
| 20260506091603 | 18 | 316 | 0.0 | 0.0 | 0.00 | 0.00 | 0.00 | 86 | 1007.1 |
| 20260506090832 | 18 | 316 | 0.0 | 1.6 | 0.00 | 0.00 | 0.00 | 85 | 1007.0 |
| 20260506090005 | 18 | 316 | 0.0 | 3.2 | 0.00 | 0.00 | 0.00 | 85 | 1007.0 |
| 20260506085932 | 18 | 316 | 0.0 | 3.2 | 0.00 | 0.00 | 0.00 | 85 | 1007.0 |
| 20260506085032 | 18 | 358 | 0.0 | 3.2 | 0.00 | 0.00 | 0.00 | 85 | 1006.8 |
| 20260506084609 | 18 | 311 | 0.0 | 3.2 | 0.00 | 0.00 | 0.00 | 84 | 1006.8 |
| 20260506084132 | 18 | 249 | 0.0 | 3.2 | 0.00 | 0.00 | 0.00 | 84 | 1006.8 |
| 20260506083232 | 18 | 248 | 0.0 | 4.8 | 0.00 | 0.00 | 0.00 | 83 | 1006.6 |
| 20260506083103 | 18 | 248 | 0.0 | 4.8 | 0.00 | 0.00 | 0.00 | 83 | 1006.7 |
| 20260506082332 | 18 | 299 | 1.6 | 6.4 | 0.00 | 0.00 | 0.00 | 83 | 1006.6 |
| 20260506081503 | 18 | 263 | 0.0 | 6.4 | 0.00 | 0.00 | 0.00 | 83 | 1006.6 |
| 20260506080532 | 19 | 312 | 4.8 | 12.9 | 0.00 | 0.00 | 0.00 | 82 | 1006.6 |
| 20260506080108 | 19 | 280 | 3.2 | 12.9 | 0.00 | 0.00 | 0.00 | 82 | 1006.6 |
| 20260506073103 | 21 | 306 | 4.8 | 19.3 | 0.00 | 0.00 | 0.00 | 83 | 1006.1 |
| 20260506071607 | 22 | 198 | 1.6 | 6.4 | 0.00 | 0.00 | 0.00 | 85 | 1005.8 |
| 20260506071132 | 22 | 228 | 1.6 | 6.4 | 0.00 | 0.00 | 0.00 | 86 | 1005.8 |
| 20260506070232 | 22 | 228 | 1.6 | 4.8 | 0.00 | 0.00 | 0.00 | 87 | 1005.5 |
| 20260506061732 | 23 | 154 | 0.0 | 3.2 | 0.00 | 0.00 | 0.00 | 88 | 1005.3 |
| 20260506061604 | 23 | 155 | 0.0 | 3.2 | 0.00 | 0.00 | 0.00 | 88 | 1005.2 |
| 20260506050532 | 23 | 177 | 3.2 | 6.4 | 0.00 | 0.00 | 0.00 | 88 | 1005.1 |
| 20260506050108 | 23 | 160 | 1.6 | 6.4 | 0.00 | 0.00 | 0.00 | 88 | 1005.0 |
| 20260506044604 | 23 | 187 | 0.0 | 1.6 | 0.00 | 0.00 | 0.00 | 87 | 1005.1 |
| 20260506043832 | 23 | 188 | 0.0 | 3.2 | 0.00 | 0.00 | 0.00 | 87 | 1005.1 |
| 20260506043005 | 23 | 187 | 0.0 | 3.2 | 0.00 | 0.00 | 0.00 | 87 | 1005.0 |
| 20260506042932 | 23 | 241 | 0.0 | 3.2 | 0.00 | 0.00 | 0.00 | 87 | 1005.0 |
| 20260506042032 | 23 | 190 | 1.6 | 6.4 | 0.00 | 0.00 | 0.00 | 87 | 1005.3 |
| 20260506041508 | 23 | 185 | 0.0 | 6.4 | 0.00 | 0.00 | 0.00 | 87 | 1004.4 |
| 20260506041132 | 23 | 149 | 0.0 | 6.4 | 0.00 | 0.00 | 0.00 | 87 | 1004.5 |
| 20260506040232 | 23 | 184 | 0.0 | 3.2 | 0.00 | 0.00 | 0.00 | 87 | 1005.1 |
| 20260506040002 | 23 | 183 | 0.0 | 3.2 | 0.00 | 0.00 | 0.00 | 87 | 1005.1 |
| 20260506035332 | 23 | 194 | 0.0 | 4.8 | 0.00 | 0.00 | 0.00 | 87 | 1005.1 |
| 20260506034517 | 23 | 183 | 0.0 | 3.2 | 0.00 | 0.00 | 0.00 | 87 | 1005.2 |
| 20260506034432 | 23 | 165 | 0.0 | 3.2 | 0.00 | 0.00 | 0.00 | 87 | 1005.1 |
| 20260506033532 | 23 | 151 | 0.0 | 1.6 | 0.00 | 0.00 | 0.00 | 86 | 1004.7 |
| 20260506033105 | 23 | 151 | 0.0 | 1.6 | 0.00 | 0.00 | 0.00 | 86 | 1004.3 |
| 20260506032632 | 23 | 151 | 0.0 | 3.2 | 0.00 | 0.00 | 0.00 | 85 | 1004.6 |
| 20260506031732 | 23 | 151 | 0.0 | 3.2 | 0.00 | 0.00 | 0.00 | 85 | 1004.7 |
| 20260506031609 | 23 | 151 | 0.0 | 3.2 | 0.00 | 0.00 | 0.00 | 85 | 1004.7 |
| 20260506030832 | 24 | 170 | 0.0 | 1.6 | 0.00 | 0.00 | 0.00 | 85 | 1004.6 |
| 20260506030104 | 23 | 215 | 0.0 | 1.6 | 0.00 | 0.00 | 0.00 | 85 | 1004.6 |
| 20260506025032 | 24 | 212 | 0.0 | 3.2 | 0.00 | 0.00 | 0.00 | 84 | 1004.6 |
| 20260506024510 | 24 | 192 | 0.0 | 1.6 | 0.00 | 0.00 | 0.00 | 84 | 1004.0 |
| 20260506024132 | 24 | 193 | 0.0 | 1.6 | 0.00 | 0.00 | 0.00 | 84 | 1003.8 |
| 20260506023232 | 24 | 193 | 0.0 | 3.2 | 0.00 | 0.00 | 0.00 | 83 | 1004.0 |
| 20260506023102 | 24 | 192 | 0.0 | 3.2 | 0.00 | 0.00 | 0.00 | 83 | 1004.0 |
| 20260506022332 | 24 | 193 | 0.0 | 3.2 | 0.00 | 0.00 | 0.00 | 83 | 1004.0 |
| 20260506021604 | 24 | 192 | 0.0 | 6.4 | 0.00 | 0.00 | 0.00 | 83 | 1003.9 |
| 20260506021432 | 24 | 184 | 3.2 | 6.4 | 0.00 | 0.00 | 0.00 | 83 | 1003.9 |
| 20260506020008 | 24 | 188 | 3.2 | 8.0 | 0.00 | 0.00 | 0.00 | 84 | 1003.9 |
| 20260506015632 | 24 | 179 | 3.2 | 9.7 | 0.00 | 0.00 | 0.00 | 83 | 1003.9 |
| 20260506014732 | 25 | 156 | 1.6 | 6.4 | 0.00 | 0.00 | 0.00 | 83 | 1003.8 |
| 20260506014602 | 24 | 180 | 1.6 | 4.8 | 0.00 | 0.00 | 0.00 | 83 | 1003.7 |
| 20260506013832 | 25 | 157 | 0.0 | 3.2 | 0.00 | 0.00 | 0.00 | 82 | 1003.7 |
| 20260506013111 | 25 | 157 | 0.0 | 4.8 | 0.00 | 0.00 | 0.00 | 82 | 1003.9 |
| 20260506012932 | 25 | 166 | 1.6 | 4.8 | 0.00 | 0.00 | 0.00 | 82 | 1004.0 |
| 20260506011611 | 25 | 229 | 0.0 | 0.0 | 0.00 | 0.00 | 0.00 | 81 | 1003.7 |
| 20260506010232 | 26 | 0 | 0.0 | 0.0 | 0.00 | 0.00 | 0.00 | 80 | 1003.9 |
| 20260506010010 | 26 | 229 | 0.0 | 0.0 | 0.00 | 0.00 | 0.00 | 79 | 1003.8 |
| 20260506005332 | 26 | 235 | 0.0 | 3.2 | 0.00 | 0.00 | 0.00 | 78 | 1003.8 |
| 20260506004504 | 26 | 244 | 0.0 | 3.2 | 0.00 | 0.00 | 0.00 | 78 | 1003.7 |
| 20260506004432 | 26 | 215 | 0.0 | 3.2 | 0.00 | 0.00 | 0.00 | 78 | 1003.6 |
| 20260506003532 | 26 | 134 | 0.0 | 1.6 | 0.00 | 0.00 | 0.00 | 78 | 1003.1 |
| 20260506003105 | 26 | 134 | 0.0 | 0.0 | 0.00 | 0.00 | 0.00 | 78 | 1003.2 |
| 20260506002632 | 27 | 134 | 0.0 | 1.6 | 0.00 | 0.00 | 0.00 | 76 | 1003.4 |
| 20260506001732 | 27 | 134 | 0.0 | 3.2 | 0.00 | 0.00 | 0.00 | 76 | 1003.2 |
| 20260506001505 | 26 | 134 | 0.0 | 3.2 | 0.00 | 0.00 | 0.00 | 75 | 1003.2 |
| 20260506000832 | 27 | 154 | 0.0 | 1.6 | 0.00 | 0.00 | 0.00 | 75 | 1003.5 |
| 20260506000005 | 27 | 173 | 0.0 | 3.2 | 0.00 | 0.00 | 0.00 | 75 | 1003.4 |
| 20260505235932 | 27 | 200 | 0.0 | 3.2 | 0.00 | 0.00 | 0.00 | 75 | 1003.5 |
| 20260505235032 | 27 | 183 | 3.2 | 6.4 | 0.00 | 0.00 | 0.00 | 74 | 1003.5 |
| 20260505234507 | 27 | 213 | 1.6 | 9.7 | 0.00 | 0.00 | 0.00 | 73 | 1003.4 |
| 20260505234132 | 27 | 184 | 4.8 | 9.7 | 0.00 | 0.00 | 0.00 | 73 | 1003.3 |
| 20260505233232 | 27 | 175 | 4.8 | 11.3 | 0.00 | 0.00 | 0.00 | 73 | 1003.0 |
| 20260505233004 | 27 | 188 | 3.2 | 11.3 | 0.00 | 0.00 | 0.00 | 73 | 1003.1 |
| 20260505232332 | 27 | 185 | 4.8 | 14.5 | 0.00 | 0.00 | 0.00 | 72 | 1003.0 |
| 20260505231504 | 27 | 200 | 1.6 | 6.4 | 0.00 | 0.00 | 0.00 | 73 | 1003.0 |
| 20260505231432 | 27 | 183 | 3.2 | 6.4 | 0.00 | 0.00 | 0.00 | 73 | 1003.0 |
| 20260505230532 | 28 | 187 | 1.6 | 8.0 | 0.00 | 0.00 | 0.00 | 72 | 1002.9 |
| 20260505230007 | 28 | 184 | 1.6 | 9.7 | 0.00 | 0.00 | 0.00 | 72 | 1002.9 |
| 20260505225632 | 28 | 187 | 0.0 | 3.2 | 0.00 | 0.00 | 0.00 | 72 | 1002.9 |
| 20260505224732 | 28 | 177 | 1.6 | 6.4 | 0.00 | 0.00 | 0.00 | 71 | 1003.0 |
| 20260505224509 | 28 | 212 | 0.0 | 6.4 | 0.00 | 0.00 | 0.00 | 71 | 1002.9 |
| 20260505223832 | 28 | 184 | 0.0 | 1.6 | 0.00 | 0.00 | 0.00 | 72 | 1003.0 |
| 20260505223004 | 28 | 239 | 0.0 | 4.8 | 0.00 | 0.00 | 0.00 | 71 | 1003.0 |
| 20260505222932 | 28 | 195 | 0.0 | 4.8 | 0.00 | 0.00 | 0.00 | 70 | 1002.9 |
| 20260505222032 | 28 | 191 | 1.6 | 4.8 | 0.00 | 0.00 | 0.00 | 71 | 1002.8 |
| 20260505221502 | 28 | 180 | 0.0 | 9.7 | 0.00 | 0.00 | 0.00 | 71 | 1002.9 |
| 20260505221132 | 28 | 193 | 3.2 | 9.7 | 0.00 | 0.00 | 0.00 | 71 | 1002.9 |
| 20260505220232 | 28 | 195 | 4.8 | 9.7 | 0.00 | 0.00 | 0.00 | 70 | 1003.1 |
| 20260505220003 | 28 | 193 | 3.2 | 14.5 | 0.00 | 0.00 | 0.00 | 70 | 1003.2 |
| 20260505215332 | 28 | 211 | 4.8 | 16.1 | 0.00 | 0.00 | 0.00 | 70 | 1003.4 |
| 20260505214606 | 28 | 209 | 4.8 | 14.5 | 0.00 | 0.00 | 0.00 | 71 | 1003.5 |
| 20260505214432 | 28 | 203 | 4.8 | 9.7 | 0.00 | 0.00 | 0.00 | 71 | 1003.5 |
| 20260505213532 | 28 | 190 | 3.2 | 9.7 | 0.00 | 0.00 | 0.00 | 71 | 1003.2 |
| 20260505213103 | 27 | 207 | 3.2 | 8.0 | 0.00 | 0.00 | 0.00 | 70 | 1003.3 |
| 20260505212632 | 28 | 189 | 3.2 | 11.3 | 0.00 | 0.00 | 0.00 | 71 | 1003.3 |
| 20260505211605 | 27 | 247 | 1.6 | 14.5 | 0.00 | 0.00 | 0.00 | 71 | 1003.4 |
| 20260505210831 | 27 | 177 | 4.8 | 16.1 | 0.00 | 0.00 | 0.00 | 72 | 1003.5 |
| 20260505210004 | 27 | 170 | 1.6 | 11.3 | 0.00 | 0.00 | 0.00 | 75 | 1003.4 |
| 20260505205932 | 27 | 179 | 4.8 | 12.9 | 0.00 | 0.00 | 0.00 | 75 | 1003.3 |
| 20260505205032 | 27 | 169 | 6.4 | 14.5 | 0.00 | 0.00 | 0.00 | 72 | 1003.1 |
| 20260505204506 | 27 | 200 | 6.4 | 11.3 | 0.00 | 0.00 | 0.00 | 71 | 1003.4 |
| 20260505204132 | 27 | 186 | 6.4 | 12.9 | 0.00 | 0.00 | 0.00 | 71 | 1003.5 |
| 20260505203232 | 27 | 189 | 4.8 | 12.9 | 0.00 | 0.00 | 0.00 | 70 | 1003.5 |
| 20260505203005 | 27 | 237 | 3.2 | 9.7 | 0.00 | 0.00 | 0.00 | 69 | 1003.5 |
| 20260505202332 | 27 | 175 | 8.0 | 14.5 | 0.00 | 0.00 | 0.00 | 70 | 1003.7 |
| 20260505201508 | 27 | 194 | 8.0 | 17.7 | 0.00 | 0.00 | 0.00 | 69 | 1003.6 |
| 20260505201432 | 27 | 185 | 9.7 | 19.3 | 0.00 | 0.00 | 0.00 | 71 | 1003.6 |
| 20260505200531 | 28 | 177 | 9.7 | 17.7 | 0.00 | 0.00 | 0.00 | 69 | 1003.5 |
| 20260505200011 | 28 | 158 | 9.7 | 17.7 | 0.00 | 0.00 | 0.00 | 70 | 1003.6 |
| 20260505194732 | 28 | 174 | 6.4 | 17.7 | 0.00 | 0.00 | 0.00 | 71 | 1003.7 |
| 20260505194615 | 27 | 170 | 8.0 | 12.9 | 0.00 | 0.00 | 0.00 | 73 | 1003.7 |
| 20260505193832 | 27 | 171 | 8.0 | 17.7 | 0.00 | 0.00 | 0.00 | 75 | 1004.0 |
| 20260505193105 | 26 | 118 | 8.0 | 17.7 | 0.00 | 0.00 | 0.00 | 75 | 1004.3 |
| 20260505192931 | 26 | 178 | 8.0 | 17.7 | 0.00 | 0.00 | 0.00 | 76 | 1004.2 |
| 20260505192031 | 26 | 175 | 8.0 | 19.3 | 0.00 | 0.00 | 0.00 | 76 | 1004.2 |
| 20260505191507 | 26 | 170 | 4.8 | 19.3 | 0.00 | 0.00 | 0.00 | 77 | 1004.3 |
| 20260505191132 | 26 | 173 | 9.7 | 17.7 | 0.00 | 0.00 | 0.00 | 76 | 1004.0 |
| 20260505190231 | 26 | 177 | 8.0 | 17.7 | 0.00 | 0.00 | 0.00 | 76 | 1004.4 |
| 20260505190005 | 26 | 185 | 8.0 | 17.7 | 0.00 | 0.00 | 0.00 | 77 | 1004.3 |
| 20260505185331 | 26 | 166 | 8.0 | 12.9 | 0.00 | 0.00 | 0.00 | 76 | 1003.9 |
| 20260505184608 | 26 | 171 | 8.0 | 19.3 | 0.00 | 0.00 | 0.00 | 76 | 1003.6 |
| 20260505184432 | 26 | 173 | 11.3 | 19.3 | 0.00 | 0.00 | 0.00 | 75 | 1003.7 |
| 20260505183531 | 26 | 178 | 11.3 | 25.7 | 0.00 | 0.00 | 0.00 | 77 | 1003.5 |
| 20260505183110 | 25 | 178 | 12.9 | 22.5 | 0.00 | 0.00 | 0.00 | 78 | 1003.7 |
| 20260505182631 | 25 | 170 | 9.7 | 19.3 | 0.00 | 0.00 | 0.00 | 81 | 1003.7 |
| 20260505181732 | 24 | 169 | 9.7 | 14.5 | 0.00 | 0.00 | 0.00 | 81 | 1004.6 |
| 20260505181607 | 24 | 162 | 8.0 | 20.9 | 0.00 | 0.00 | 0.00 | 80 | 1004.7 |
| 20260505180832 | 24 | 169 | 9.7 | 16.1 | 0.00 | 0.00 | 0.00 | 82 | 1004.8 |
| 20260505180004 | 23 | 161 | 9.7 | 17.7 | 0.00 | 0.00 | 0.00 | 82 | 1004.8 |
| 20260505175932 | 24 | 175 | 9.7 | 17.7 | 0.00 | 0.00 | 0.00 | 82 | 1004.8 |
| 20260505175031 | 23 | 167 | 9.7 | 17.7 | 0.00 | 0.00 | 0.00 | 82 | 1004.9 |
| 20260505174504 | 23 | 169 | 6.4 | 17.7 | 0.00 | 0.00 | 0.00 | 83 | 1004.9 |
| 20260505174131 | 23 | 177 | 8.0 | 17.7 | 0.00 | 0.00 | 0.00 | 83 | 1004.8 |
| 20260505173231 | 23 | 179 | 9.7 | 19.3 | 0.00 | 0.00 | 0.00 | 84 | 1004.8 |
| 20260505173030 | 23 | 196 | 8.0 | 19.3 | 0.00 | 0.00 | 0.00 | 83 | 1004.8 |
| 20260505172331 | 23 | 175 | 8.0 | 16.1 | 0.00 | 0.00 | 0.00 | 84 | 1004.7 |
| 20260505171504 | 22 | 194 | 8.0 | 14.5 | 0.00 | 0.00 | 0.00 | 85 | 1004.9 |
| 20260505171431 | 23 | 172 | 9.7 | 14.5 | 0.00 | 0.00 | 0.00 | 85 | 1004.9 |
| 20260505170532 | 22 | 174 | 9.7 | 17.7 | 0.00 | 0.00 | 0.00 | 85 | 1004.9 |
| 20260505170004 | 22 | 183 | 8.0 | 14.5 | 0.00 | 0.00 | 0.00 | 86 | 1005.0 |
| 20260505165632 | 22 | 182 | 9.7 | 19.3 | 0.00 | 0.00 | 0.00 | 85 | 1004.9 |
| 20260505164732 | 22 | 161 | 9.7 | 16.1 | 0.00 | 0.00 | 0.00 | 86 | 1005.0 |
| 20260505164510 | 22 | 161 | 9.7 | 16.1 | 0.00 | 0.00 | 0.00 | 87 | 1005.0 |
| 20260505163832 | 22 | 178 | 9.7 | 16.1 | 0.00 | 0.00 | 0.00 | 87 | 1005.1 |
| 20260505163106 | 22 | 200 | 6.4 | 17.7 | 0.00 | 0.00 | 0.00 | 87 | 1005.1 |
| 20260505162931 | 22 | 168 | 9.7 | 17.7 | 0.00 | 0.00 | 0.00 | 87 | 1004.8 |
| 20260505162032 | 22 | 174 | 9.7 | 17.7 | 0.00 | 0.00 | 0.00 | 88 | 1004.9 |
| 20260505161604 | 21 | 186 | 9.7 | 19.3 | 0.00 | 0.00 | 0.00 | 88 | 1004.9 |
| 20260505161131 | 21 | 168 | 9.7 | 19.3 | 0.00 | 0.00 | 0.00 | 88 | 1004.8 |
| 20260505160231 | 21 | 170 | 9.7 | 17.7 | 0.00 | 0.00 | 0.00 | 88 | 1004.9 |
| 20260505153009 | 21 | 182 | 9.7 | 16.1 | 0.00 | 0.00 | 0.00 | 88 | 1005.2 |
| 20260505152631 | 21 | 163 | 8.0 | 12.9 | 0.00 | 0.00 | 0.00 | 89 | 1005.2 |
| 20260505151732 | 21 | 165 | 8.0 | 14.5 | 0.00 | 0.00 | 0.00 | 89 | 1005.5 |
| 20260505151512 | 20 | 136 | 6.4 | 12.9 | 0.00 | 0.00 | 0.00 | 89 | 1005.5 |
| 20260505150831 | 21 | 171 | 9.7 | 16.1 | 0.00 | 0.00 | 0.00 | 89 | 1005.5 |
| 20260505140532 | 20 | 163 | 9.7 | 19.3 | 0.00 | 0.00 | 0.00 | 89 | 1005.4 |
| 20260505130231 | 20 | 169 | 6.4 | 12.9 | 0.00 | 0.00 | 0.00 | 89 | 1005.0 |
| 20260505130104 | 19 | 188 | 8.0 | 12.9 | 0.00 | 0.00 | 0.00 | 89 | 1005.0 |
| 20260505124510 | 19 | 161 | 6.4 | 12.9 | 0.00 | 0.00 | 0.00 | 88 | 1005.1 |
| 20260505123531 | 20 | 167 | 6.4 | 16.1 | 0.00 | 0.00 | 0.00 | 88 | 1005.2 |
| 20260505123005 | 19 | 171 | 6.4 | 16.1 | 0.00 | 0.00 | 0.00 | 88 | 1005.1 |
| 20260505122631 | 20 | 173 | 8.0 | 16.1 | 0.00 | 0.00 | 0.00 | 88 | 1005.0 |
| 20260505121503 | 19 | 150 | 4.8 | 11.3 | 0.00 | 0.00 | 0.00 | 87 | 1005.0 |
| 20260505120831 | 20 | 168 | 8.0 | 12.9 | 0.00 | 0.00 | 0.00 | 87 | 1004.9 |
| 20260505120106 | 20 | 182 | 6.4 | 14.5 | 0.00 | 0.00 | 0.00 | 86 | 1004.7 |
| 20260505115031 | 20 | 175 | 4.8 | 9.7 | 0.00 | 0.00 | 0.00 | 86 | 1004.8 |
| 20260505114603 | 19 | 167 | 4.8 | 11.3 | 0.00 | 0.00 | 0.00 | 86 | 1004.8 |